CAPE
0 0 0 0 0 0 1 1 1 1 3 4 2 0 10 0 10 130 202 21 0 0 0 0 0 0 0 0 0 0 0 0 0 0 0 0 0 0 0 0 0 0 0
0 0 0 0 0 0 0 0 2 2 2 3 5 6 11 8 3 0 210 50 6 0 0 0 0 0 0 0 0 0 0 0 0 0 0 1 0 0 0 0 0 0 0
0 0 0 0 0 0 0 1 1 2 1 2 6 5 3 1 1 0 7 70 10 0 1 0 0 0 0 0 0 0 0 0 0 0 0 1 0 0 0 0 0 0 0
0 0 0 0 0 0 0 0 0 1 1 3 7 12 11 11 1 1 1 116 3 2 0 0 0 0 0 0 0 0 0 0 0 0 0 0 0 0 1 0 0 0 0
0 0 0 0 0 0 0 0 0 1 1 2 3 9 8 9 11 2 0 78 2 1 0 0 0 0 0 0 0 0 0 0 0 0 0 0 0 0 0 0 0 0 0
0 0 0 0 0 0 0 0 0 1 0 1 3 9 11 7 7 0 0 2 14 0 0 0 0 0 0 0 0 0 0 0 0 0 0 0 0 0 0 0 0 0 0
0 0 0 0 0 0 0 0 0 0 1 0 3 7 10 8 11 5 1 0 9 3 0 0 0 0 0 0 0 0 0 0 0 0 0 0 0 0 0 0 0 0 0
0 0 0 0 0 0 0 0 0 1 1 2 2 3 5 10 7 11 6 4 0 12 0 0 0 0 0 0 0 0 0 0 0 0 0 0 0 0 0 0 0 0 0
0 0 0 0 0 0 0 0 0 0 0 2 1 3 3 8 7 7 9 8 3 1 0 0 0 0 0 0 0 0 0 0 0 0 0 0 0 0 0 0 0 0 0
0 0 0 0 0 0 0 0 0 0 0 1 1 2 3 5 4 2 11 7 2 0 0 0 0 0 0 0 0 0 0 0 0 0 0 0 0 0 0 0 0 0 0
0 0 0 0 0 0 0 0 0 0 1 0 1 1 3 4 4 3 7 9 6 1 0 0 0 0 0 0 0 0 0 0 0 0 0 0 0 0 0 0 0 0 0
0 0 0 0 0 0 0 0 0 0 1 1 0 1 1 3 6 4 6 6 7 3 0 0 0 0 0 0 0 0 0 0 0 0 0 0 0 0 0 0 0 0 0
0 0 0 0 0 0 0 0 0 0 0 0 0 1 1 3 6 4 4 5 6 3 0 0 0 0 0 0 0 0 0 0 0 0 0 0 0 0 0 0 0 0 0
0 0 0 0 0 0 0 0 0 0 0 0 0 1 1 2 3 4 4 4 4 5 0 0 2 0 0 0 0 0 0 0 0 0 0 0 0 0 0 0 0 0 0
0 0 0 0 0 0 0 0 0 0 0 0 0 0 0 1 2 2 4 4 4 4 3 0 0 3 1 0 0 0 0 0 0 0 0 0 0 0 0 0 0 0 0
0 0 0 0 0 0 0 0 0 0 0 0 0 0 0 1 2 2 4 3 4 4 4 0 0 1 1 0 0 0 0 0 0 0 0 0 0 0 0 0 0 0 0
0 0 0 0 0 0 0 0 0 0 0 0 0 0 0 1 0 2 2 3 4 4 6 2 1 2 8 0 0 0 0 0 0 0 0 0 0 0 0 0 0 0 0
0 0 0 0 0 0 0 0 0 0 0 0 0 0 0 0 0 1 1 1 3 4 3 6 5 0 6 5 1 0 0 0 0 0 0 0 0 0 0 0 0 0 0
0 0 0 0 0 0 0 0 0 0 0 0 0 0 0 0 0 0 0 1 2 4 5 4 1 6 9 7 1 0 0 0 0 0 0 0 0 0 0 0 0 0 0
0 0 0 0 0 0 0 0 0 0 0 0 0 0 0 0 0 0 0 0 0 2 2 4 3 3 3 8 7 1 0 0 0 0 0 0 0 0 0 0 0 0 0
0 0 0 0 0 0 0 0 0 0 0 0 0 0 0 0 0 0 0 0 0 1 0 2 1 1 1 1 7 7 3 0 1 1 0 0 0 0 0 0 0 0 0
0 0 0 0 0 0 0 0 0 0 0 0 0 0 0 0 0 0 0 0 0 0 0 0 0 1 1 3 3 5 5 5 2 2 4 3 3 0 0 0 0 0 0
0 0 0 0 0 0 0 0 0 0 0 0 0 0 0 0 0 0 0 0 0 0 0 0 1 0 0 0 2 3 4 4 4 5 4 3 1 0 3 1 0 0 0
0 0 0 0 0 0 0 0 0 0 0 0 0 0 0 0 0 0 0 0 0 0 0 0 0 0 0 0 0 1 2 2 1 1 2 3 2 4 4 0 0 0 0
0 0 0 0 0 0 0 0 0 0 0 0 0 0 0 0 0 0 0 0 0 1 0 0 0 0 0 0 4 4 1 2 4 1 0 1 1 1 1 4 6 3 1
0 0 0 0 0 0 0 0 0 0 0 0 0 0 0 0 0 0 0 0 0 0 0 2 2 0 0 1 3 3 4 3 1 0 4 4 4 4 5 7 3 3 3
CIN
-0 -0 -0 -0 -0 -0 -0 -0 -0 -0 -0 -0 -0 -0 -0 -0 -8 -35 -5 -26 -0 -0 -0 -0 -0 -0 -0 -0 -0 -0 -0 -0 -0 -0 -0 -0 -0 -0 -0 -0 -0 -0 -0
-0 -0 -0 -0 -0 -0 -0 -0 -0 -0 -0 -0 -0 -0 -0 -0 -0 -0 -0 -17 -51 -0 -0 -0 -0 -0 -0 -0 -0 -0 -0 -0 -0 -0 -0 -2 -0 -0 -0 -0 -0 -0 -0
-0 -0 -0 -0 -0 -0 -0 -0 -0 -0 -0 -0 -0 -0 -0 -0 -0 -0 -0 -8 -77 -0 -39 -0 -0 -0 -0 -0 -0 -0 -0 -0 -0 -0 -0 -1 -0 -0 -0 -0 -0 -0 -0
-0 -0 -0 -0 -0 -0 -0 -0 -0 -0 -0 -0 -0 -0 -0 -0 -0 -0 -0 -8 -38 -37 -0 -0 -0 -0 -0 -0 -0 -0 -0 -0 -0 -0 -0 -0 -0 -0 -0 -0 -0 -0 -0
-0 -0 -0 -0 -0 -0 -0 -0 -0 -0 -0 -0 -0 -0 -0 -0 -0 -0 -0 -9 -15 -11 -0 -0 -0 -0 -0 -0 -0 -0 -0 -0 -0 -0 -0 -0 -0 -0 -0 -0 -0 -0 -0
-0 -0 -0 -0 -0 -0 -0 -0 -0 -0 -0 -0 -0 -0 -0 -0 -0 -0 -0 -0 -13 -6 -0 -0 -0 -0 -0 -0 -0 -0 -0 -0 -0 -0 -0 -0 -0 -0 -0 -0 -0 -0 -0
-0 -0 -0 -0 -0 -0 -0 -0 -0 -0 -0 -0 -0 -0 -0 -0 -0 -0 -0 -0 -5 -6 -0 -0 -0 -0 -0 -0 -0 -0 -0 -0 -0 -0 -0 -0 -0 -0 -0 -0 -0 -0 -0
-0 -0 -0 -0 -0 -0 -0 -0 -0 -0 -0 -0 -0 -0 -0 -0 -0 -0 -0 -0 -0 -62 -0 -0 -0 -0 -0 -0 -0 -0 -0 -0 -0 -0 -0 -0 -0 -0 -0 -0 -0 -0 -2
-0 -0 -0 -0 -0 -0 -0 -0 -0 -0 -0 -0 -0 -0 -0 -0 -0 -0 -0 -0 -0 -0 -0 -0 -0 -0 -0 -0 -0 -0 -0 -0 -0 -0 -0 -0 -0 -0 -0 -0 -0 -0 -0
-0 -0 -0 -0 -0 -0 -0 -0 -0 -0 -0 -0 -0 -0 -0 -0 -0 -0 -0 -0 -0 -0 -0 -0 -0 -0 -0 -0 -0 -0 -0 -0 -0 -0 -0 -0 -0 -0 -0 -0 -0 -0 -0
-0 -0 -0 -0 -0 -0 -0 -0 -0 -0 -0 -0 -0 -0 -0 -0 -0 -0 -0 -0 -0 -0 -0 -0 -0 -0 -0 -0 -0 -0 -0 -0 -0 -0 -0 -0 -0 -0 -0 -0 -0 -0 -0
-0 -0 -0 -0 -0 -0 -0 -0 -0 -0 -0 -0 -0 -0 -0 -0 -0 -0 -0 -0 -0 -0 -0 -0 -0 -0 -0 -0 -0 -0 -0 -0 -0 -0 -0 -0 -0 -0 -0 -0 -0 -0 -0
-0 -0 -0 -0 -0 -0 -0 -0 -0 -0 -0 -0 -0 -0 -0 -0 -0 -0 -0 -0 -0 -0 -0 -0 -0 -0 -0 -0 -0 -0 -0 -0 -0 -0 -0 -0 -0 -0 -0 -0 -0 -0 -0
-0 -0 -0 -0 -0 -0 -0 -0 -0 -0 -0 -0 -0 -0 -0 -0 -0 -0 -0 -0 -0 -0 -0 -0 -7 -0 -0 -0 -0 -0 -0 -0 -0 -0 -0 -0 -0 -0 -0 -0 -0 -0 -0
-0 -0 -0 -0 -0 -0 -0 -0 -0 -0 -0 -0 -0 -0 -0 -0 -0 -0 -0 -0 -0 -0 -0 -0 -0 -5 -0 -0 -0 -0 -0 -0 -0 -0 -0 -0 -0 -0 -0 -0 -0 -0 -0
-0 -0 -0 -0 -0 -0 -0 -0 -0 -0 -0 -0 -0 -0 -0 -0 -0 -0 -0 -0 -0 -0 -0 -0 -0 -40 -0 -0 -0 -0 -0 -0 -0 -0 -0 -0 -0 -0 -0 -0 -0 -0 -0
-0 -0 -0 -0 -0 -0 -0 -0 -0 -0 -0 -0 -0 -0 -0 -0 -0 -0 -0 -0 -0 -0 -0 -0 -0 -0 -0 -0 -0 -0 -0 -0 -0 -0 -0 -0 -0 -0 -0 -0 -0 -0 -0
-0 -0 -0 -0 -0 -0 -0 -0 -0 -0 -0 -0 -0 -0 -0 -0 -0 -0 -0 -0 -0 -0 -0 -0 -0 -0 -0 -0 -0 -0 -0 -0 -0 -0 -0 -0 -0 -0 -0 -0 -0 -0 -0
-0 -0 -0 -0 -0 -0 -0 -0 -0 -0 -0 -0 -0 -0 -0 -0 -0 -0 -0 -0 -0 -0 -0 -0 -0 -0 -0 -0 -0 -0 -0 -0 -0 -0 -0 -0 -0 -0 -0 -0 -0 -0 -0
-0 -0 -0 -0 -0 -0 -0 -0 -0 -0 -0 -0 -0 -0 -0 -0 -0 -0 -0 -0 -0 -0 -0 -0 -0 -0 -0 -0 -0 -0 -0 -0 -0 -1 -0 -0 -0 -0 -0 -0 -0 -0 -0
-0 -0 -0 -0 -0 -0 -0 -0 -0 -0 -0 -0 -0 -0 -0 -0 -0 -0 -0 -0 -0 -0 -0 -0 -0 -0 -0 -0 -0 -0 -0 -0 -0 -0 -0 -0 -0 -0 -0 -0 -0 -0 -0
-0 -0 -0 -0 -0 -0 -0 -0 -0 -0 -0 -0 -0 -0 -0 -0 -0 -0 -0 -0 -0 -0 -0 -0 -0 -0 -0 -0 -0 -0 -0 -0 -0 -0 -0 -0 -0 -0 -0 -0 -0 -0 -0
-0 -0 -0 -0 -0 -0 -0 -0 -0 -0 -0 -0 -0 -0 -0 -0 -0 -0 -0 -0 -0 -0 -0 -0 -0 -0 -0 -0 -0 -0 -0 -0 -0 -0 -0 -0 -0 -0 -0 -0 -0 -0 -0
-0 -0 -0 -0 -0 -0 -0 -0 -0 -0 -0 -0 -0 -0 -0 -0 -0 -0 -0 -0 -0 -0 -0 -0 -0 -0 -0 -0 -0 -0 -0 -0 -0 -0 -0 -0 -0 -0 -0 -0 -0 -0 -0
-0 -0 -0 -0 -0 -0 -0 -0 -0 -0 -0 -0 -0 -0 -0 -0 -0 -0 -0 -0 -0 -0 -0 -0 -0 -0 -0 -0 -0 -0 -0 -0 -0 -0 -0 -0 -0 -0 -0 -0 -0 -0 -0
-0 -0 -0 -0 -0 -0 -0 -0 -0 -0 -0 -0 -0 -0 -0 -0 -0 -0 -0 -0 -0 -0 -0 -0 -0 -0 -0 -0 -0 -0 -0 -0 -0 -0 -0 -0 -0 -0 -0 -0 -0 -0 -0
Wind_Speed
38 38 38 38 39 39 40 40 40 39 40 36 37 36 42 42 47 37 41 40 37 34 33 31 29 27 25 26 24 22 21 20 17 14 12 11 11 9 8 6 4 3 3
38 37 36 36 37 39 39 39 40 39 37 37 38 37 39 43 48 40 45 43 40 37 35 33 30 28 26 26 26 24 24 23 21 18 15 15 15 14 10 8 6 2 3
37 36 34 34 34 35 37 39 39 39 37 36 37 38 35 41 51 46 42 45 41 39 36 35 31 30 28 27 26 25 26 24 23 21 19 15 19 13 15 11 8 4 1
35 33 32 33 33 33 35 36 36 37 36 35 36 36 37 38 38 45 37 46 43 41 37 36 34 30 29 28 28 26 26 25 25 24 23 20 17 18 16 15 10 7 4
33 31 30 31 31 31 32 33 34 35 33 34 34 36 38 38 40 42 45 52 43 40 39 37 35 32 31 30 28 26 26 27 27 28 25 24 16 17 16 13 12 11 6
32 30 29 29 29 28 29 30 32 33 32 32 33 35 37 38 35 45 50 40 40 40 39 39 36 34 32 32 29 27 26 27 28 29 26 23 20 20 18 17 14 11 9
31 29 29 28 27 27 27 28 29 31 30 31 32 33 34 37 38 39 48 40 40 43 40 40 39 36 33 33 31 29 28 28 28 29 29 24 21 20 18 14 14 13 13
30 28 28 26 26 26 26 26 27 28 28 29 31 31 32 34 37 37 44 44 31 45 41 41 38 38 35 33 33 32 31 30 30 29 30 26 23 20 17 17 15 14 14
29 28 27 26 25 24 25 25 25 25 26 28 30 30 31 32 35 34 36 40 35 31 43 40 41 39 36 34 33 32 32 31 32 30 30 29 27 24 19 16 16 15 16
27 27 27 26 25 24 24 23 23 24 25 26 27 30 31 30 32 35 38 39 38 33 43 44 46 40 37 34 34 34 33 32 32 31 30 31 29 27 22 18 17 18 18
25 26 26 26 25 23 23 23 23 23 24 24 26 28 30 30 30 33 35 38 37 34 30 42 43 41 38 36 36 35 34 33 33 32 32 31 29 28 24 20 19 19 20
25 25 25 25 25 24 24 23 23 23 23 24 25 26 28 29 30 32 35 37 38 38 33 42 45 42 39 38 37 38 37 36 34 32 32 31 30 29 26 23 21 21 20
27 26 25 25 25 24 24 24 23 23 23 23 24 25 26 28 29 31 32 34 38 37 36 34 45 41 41 39 39 37 38 37 36 34 34 33 31 31 28 26 24 23 22
28 27 26 25 26 25 25 25 24 24 24 23 23 25 26 27 28 29 31 32 32 33 33 35 46 42 41 40 39 38 38 38 38 37 35 35 34 32 30 29 28 25 24
29 28 26 26 26 26 25 25 25 24 24 24 24 25 26 26 27 27 29 31 33 32 32 30 38 38 41 41 39 40 38 37 38 38 37 36 35 32 31 30 30 28 27
15 29 27 26 26 26 26 25 25 25 24 24 24 25 26 26 26 27 28 28 28 30 30 23 25 38 40 39 38 38 39 37 37 38 38 37 36 34 32 31 29 29 27
17 15 28 27 26 26 26 26 25 25 24 23 24 24 25 25 25 26 25 26 26 27 28 21 21 23 28 36 36 37 37 39 38 36 36 36 37 35 34 32 30 30 29
19 15 16 27 26 25 26 26 25 25 24 24 24 24 25 25 24 24 23 24 24 23 23 24 21 22 22 27 33 38 36 37 38 36 35 36 36 36 35 35 35 34 32
18 16 15 19 27 26 26 26 25 25 24 24 24 25 25 25 25 24 23 23 24 23 21 21 21 22 21 24 27 36 35 37 40 39 38 36 36 35 35 35 36 36 36
17 17 16 16 23 26 26 26 25 25 25 24 24 23 23 24 24 23 22 22 21 21 20 18 22 25 21 20 24 30 34 35 36 37 38 40 38 37 35 37 36 38 36
17 16 15 16 16 22 25 26 25 25 25 25 24 23 22 23 23 22 21 21 20 19 18 20 22 24 25 21 17 22 29 33 34 34 35 38 40 40 39 38 39 38 35
16 16 15 15 15 17 21 26 26 26 25 25 23 23 22 21 22 22 21 20 20 21 20 20 21 24 23 23 23 21 23 26 29 31 33 33 36 39 40 42 40 38 36
14 15 15 14 14 14 15 21 25 25 26 25 24 23 22 21 20 20 21 21 20 21 21 22 22 23 23 24 25 25 24 22 27 27 26 28 31 35 36 39 42 42 39
13 14 15 15 14 14 14 16 22 25 26 26 25 24 23 21 21 20 20 20 21 21 21 21 23 24 22 23 23 26 25 24 25 26 27 27 26 28 31 35 36 39 40
13 14 14 14 14 13 12 14 19 24 26 26 25 25 24 23 22 21 21 20 20 20 22 22 22 24 25 24 23 24 24 24 20 21 26 30 30 31 29 30 31 34 38
13 13 13 13 13 13 12 12 16 21 25 26 26 26 25 25 24 23 22 21 20 20 20 20 20 21 22 23 22 21 20 20 17 19 20 25 27 30 30 31 32 31 32
Wind_Direction
300 293 286 281 274 267 265 263 262 263 265 266 262 259 250 238 235 227 218 213 212 213 215 216 212 212 211 210 209 210 207 211 205 199 213 230 237 238 246 254 275 320 13
303 296 290 285 277 267 264 263 262 263 266 261 260 257 261 244 236 243 217 213 212 212 214 214 211 210 210 211 210 211 213 218 207 206 216 227 239 243 246 252 263 280 62
306 298 290 286 280 270 264 260 262 261 261 262 259 256 258 248 234 238 231 212 211 211 212 213 211 213 213 213 212 212 213 210 213 207 228 228 242 225 246 249 251 241 166
309 301 293 289 282 274 267 262 262 261 260 260 258 256 250 254 239 238 247 215 211 211 211 211 213 212 216 215 214 214 214 211 212 215 228 243 238 237 239 247 244 237 233
311 302 297 293 286 277 271 264 262 261 260 257 258 255 250 254 250 248 231 221 210 208 210 209 212 214 216 216 215 214 212 214 217 221 231 239 231 240 244 228 230 245 235
312 305 301 299 291 282 275 268 262 260 260 256 257 256 254 252 255 237 234 231 204 208 210 209 211 215 217 217 216 216 213 215 220 224 231 234 228 237 241 245 228 231 235
313 308 306 300 297 286 279 271 267 261 262 258 259 258 257 253 249 243 237 240 225 212 210 209 213 216 217 218 218 217 217 217 220 224 231 237 236 240 245 236 228 234 247
314 311 308 302 301 290 284 276 272 266 265 261 260 259 260 256 252 252 239 245 251 215 212 210 213 217 216 217 219 221 222 223 225 228 231 236 235 239 243 239 218 230 247
311 312 311 307 304 295 290 283 277 272 270 264 262 260 261 259 254 257 256 246 246 226 216 214 216 218 218 217 219 222 223 225 228 230 232 235 237 242 243 238 225 224 244
304 312 314 311 308 300 294 291 286 276 272 271 266 263 262 261 257 254 252 251 245 252 223 219 219 220 219 217 219 223 225 226 230 231 232 236 238 241 240 239 234 238 253
297 304 312 315 311 305 301 295 294 285 277 278 271 267 264 263 260 258 256 254 249 251 249 219 218 219 218 219 220 224 225 226 229 231 232 235 237 239 238 238 239 240 249
295 301 308 312 315 311 308 302 298 293 283 282 276 273 267 266 264 262 261 259 254 252 250 238 216 219 219 220 222 225 227 227 228 229 231 234 234 236 237 238 239 240 245
307 309 310 313 317 315 312 307 302 299 289 286 282 277 273 269 267 266 267 263 253 256 253 255 226 217 220 221 224 226 228 228 228 229 231 233 233 235 238 240 241 240 243
315 311 310 313 317 317 316 311 307 302 296 286 285 280 278 273 269 267 263 264 261 259 257 250 239 222 221 222 224 227 229 230 230 231 232 233 234 234 235 239 240 242 243
317 314 310 310 312 317 318 315 310 308 300 291 287 283 281 278 273 272 268 264 259 258 259 263 245 223 227 224 221 227 229 230 231 232 234 235 235 234 235 237 240 241 242
37 320 313 309 310 313 317 316 313 311 305 295 289 291 287 282 278 275 273 269 266 263 261 261 266 232 227 236 219 225 230 231 231 232 235 237 235 234 234 236 238 238 238
37 39 321 311 308 311 316 316 314 315 308 302 293 292 292 286 283 280 278 274 272 267 256 259 258 249 243 237 236 225 230 232 232 233 234 236 237 235 236 236 238 240 238
37 40 35 324 312 310 314 316 316 316 313 304 298 295 291 286 288 283 282 277 273 269 262 256 258 261 257 241 239 234 230 233 233 233 234 235 237 236 237 239 241 243 243
39 40 42 24 324 313 312 312 317 316 313 310 301 298 294 289 286 283 284 280 272 270 268 265 262 261 262 253 249 240 236 235 236 237 237 237 238 237 234 239 242 244 247
40 40 41 38 6 324 314 310 312 316 312 308 304 299 297 290 287 284 283 283 278 273 269 266 261 260 268 275 259 248 241 240 241 239 240 239 240 239 235 238 242 244 246
34 37 39 36 33 359 324 309 307 310 310 304 302 300 297 292 288 285 285 283 279 277 272 266 265 263 269 270 278 261 253 244 245 244 243 243 243 244 239 238 244 246 247
30 32 33 34 35 26 351 319 306 304 306 303 299 296 296 292 288 284 282 283 279 273 272 272 271 271 275 272 270 267 262 253 250 246 248 247 247 246 246 244 245 246 247
23 27 27 28 31 31 19 343 314 304 299 299 294 290 291 290 289 286 281 278 279 275 273 271 272 273 274 274 271 270 268 269 257 254 254 253 251 252 248 249 248 248 248
16 20 21 20 21 26 23 7 331 310 298 293 291 288 285 286 283 282 282 278 277 277 274 277 274 275 281 280 279 275 273 272 268 264 257 257 256 257 257 253 252 251 252
9 13 12 12 12 17 18 9 348 318 301 290 286 285 279 275 275 274 276 276 278 281 278 279 279 278 277 286 286 287 281 275 278 270 264 257 260 258 258 257 256 258 257
0 1 2 4 4 6 5 4 352 328 304 293 284 280 278 273 271 272 274 278 280 282 284 287 286 282 286 289 288 288 291 286 281 269 269 260 259 260 264 264 262 263 265